Hourly Data Report for June 16, 2021

CARIBOU POINT (AUT)
NOVA SCOTIA
Current Station Operator: ECCC - MSC

45°46'00.000" N
62°41'00.000" W
2.40 m
8200774
71415
WBK

Download Data

Hourly Data (June 2021)
Hourly Data Report for June 16, 2021
TIME
LST
Temp Definition
°C
Dew Point Definition
°C
Rel Hum Definition
%
Precip. Amount Definition
mm

Wind Dir Definition
10's deg

Wind Spd Definition
km/h
Visibility Definition
km
Stn Press Definition
kPa
Hmdx Definition


Wind Chill Definition


Weather Definition


00:00 14.4 13.0 91 0.0 15 24   100.63     LegendNANA
01:00 13.9 13.0 94 0.0 16 29   100.55     LegendNANA
02:00 14.1 13.1 94 1.0 17 28   100.48     LegendNANA
03:00 13.9 12.9 94 2.1 16 29   100.37     LegendNANA
04:00 14.1 13.1 94 0.5 17 28   100.31     LegendNANA
05:00 14.1 13.3 95 0.5 17 34   100.26     LegendNANA
06:00 14.5 13.9 96 0.0 19 17   100.24     LegendNANA
07:00 14.9 14.1 95 0.0 19 19   100.23     LegendNANA
08:00
09:00 18.3 16.6 90 0.0 19 16   100.15     LegendNANA
10:00 18.1 16.2 89 0.0 21 4   100.14     LegendNANA
11:00 16.4 14.5 89 0.0 13 17   100.07     LegendNANA
12:00 16.4 15.0 91 0.0 14 10   100.04     LegendNANA
13:00 16.4 14.7 89 0.0 2 6   100.04     LegendNANA
14:00 15.5 13.2 86 0.0 1 11   99.99     LegendNANA
15:00
16:00 16.4 14.2 87 0.3 4 11   100.00     LegendNANA
17:00 17.3 15.2 88 0.0 10 12   100.00     LegendNANA
18:00 17.2 15.8 92 0.0 11 9   100.02     LegendNANA
19:00 16.0 13.9 87 0.0 31 17   100.09     LegendNANA
20:00 15.9 14.3 91 0.0 28 26   100.18     LegendNANA
21:00 16.3 14.1 87 0.0 27 19   100.31     LegendNANA
22:00 16.8 14.8 88 0.0 25 9   100.36     LegendNANA
23:00 15.9 14.5 91 0.0 23 9   100.41     LegendNANA

Notes on Data Quality.

Legend

  • E = Estimated
  • M = Missing
  • NA = Not Available*
  • [empty] = Indicates an unobserved value
Date modified: